星链-32562 (STARLINK-32562)

导读 | 星芒AI

STARLINK-32562 是 SpaceX 星链计划中的一颗低轨通信卫星,属于第 6 批(v1.5)星链卫星群。该卫星于 2023 年发射,旨在为全球用户提供高速互联网服务。它运行在约 550 公里的轨道高度,采用先进的星间激光通信技术,提高数据传输效率。星链项目计划部署数万颗卫星,构建覆盖全球的宽带网络,尤其服务于偏远地区。STARLINK-32562 在提升网络覆盖率和连接质量方面发挥着重要作用。

基本信息
目录编号:
62168
目录名称:
STARLINK-32562
国际标识:
2024-225F
轨道中心:
EARTH
卫星名称:
星链-32562
卫星全名:
星链-32562 (STARLINK-32562)
卫星状态:
在轨 (已飞行385 天)
发射日期:
2024-11-30 UTC
国别 :
美国 (US)
星等 :
--
轨道信息
数据来源 国际轨道数据 AOE轨道数据
星历时间 2025-12-19T18:27:37+0800
1天前
查看轨道信息
2025-12-18T05:00:00+0800
2天前
查看轨道信息
半长轴 6950.194km 6950.188km
偏心率 0.000281 0.0002825
轨道倾角 70.002° 70.001°
近地点辐角 272.279° 275.595°
升交点赤经 6.806° 10.740°
平近点角 87.805° 307.752°
近地点 570.103km 570.089km
远地点 574.011km 574.017km
周期 96.107分钟 96.107分钟
每日圈数 14.983297 14.983316
详细信息
固有亮度:
5
最大亮度:
2.5
卫星平台:
Starlink V1.0
覆盖范围:
全球
运营商:
太空探索技术公司
运营商所在国:
美国
制造商(研发单位):
太空探索技术公司
制造商所在国:
美国
使用方式:
暂无
卫星简介
Starlink 计划是 SpaceX 推出的全球卫星互联网项目,通过发射低轨道卫星,为全球尤其是偏远地区提供高速、低延迟的互联网服务。自 2019 年起,Starlink 已部署数千颗卫星,旨在缩小全球数字鸿沟,推动互联网普及。该项目还为军事、航空等行业提供通信支持,带来广泛经济效益。
2D轨道图
3D轨道图
轨道高度分析图
轨道倾角分析图
轨道综合分析图
查看轨道综合分析图